When you browse on this site, cookies collect data to enhance your experience and personalize the content and advertising you see.
Visit our Privacy Policy to learn more. By continuing to use the site, you agree to this use of cookies and data.
  • In Czech Republic
  • List of Countries
  • For 7 days
  • Water Temperature
  • Weather Map
  • Weather Widgets
  • user-avatar
    Login

    Hourly Weather Kipungo

    Today, 1 April, Wednesday

    Time Temperature Precipitation Wind Pressure Humidity
    00:00 +18°C° 0 mm 0 mps 653 mmHg 91%
    01:00 +17°C° 0 mm 0 mps 652 mmHg 93%
    02:00 +17°C° 0 mm 0 mps 652 mmHg 93%
    03:00 +17°C° 0 mm 0 mps 652 mmHg 94%
    04:00 +16°C° 0 mm 0 mps 651 mmHg 95%
    05:00 +17°C° 0 mm 0 mps 652 mmHg 94%
    06:00 +17°C° 0 mm 0 mps 653 mmHg 93%
    07:00 +18°C° 0 mm 0 mps 654 mmHg 92%
    08:00 +22°C° 0 mm 1 mps 654 mmHg 84%
    09:00 +24°C° 0 mm 1 mps 655 mmHg 76%
    10:00 +26°C° 0 mm 1 mps 655 mmHg 69%
    11:00 +27°C° 0 mm 1 mps 655 mmHg 64%
    12:00 +28°C° 0 mm 2 mps 655 mmHg 59%
    13:00 +29°C° 0 mm 2 mps 655 mmHg 54%
    14:00 +29°C° 0 mm 2 mps 654 mmHg 56%
    15:00 +29°C° 0 mm 2 mps 653 mmHg 58%
    16:00 +29°C° 0 mm 2 mps 652 mmHg 60%
    17:00 +27°C° 0 mm 1 mps 652 mmHg 66%
    18:00 +25°C° 0 mm 1 mps 652 mmHg 73%
    19:00 +23°C° 0 mm 1 mps 652 mmHg 79%
    20:00 +22°C° 0 mm 1 mps 653 mmHg 80%
    21:00 +22°C° 0 mm 1 mps 653 mmHg 81%
    22:00 +19°C° 0 mm 0 mps 653 mmHg 82%
    23:00 +21°C° 0 mm 1 mps 653 mmHg 83%

    Tomorrow, 2 April, Thursday

    Time Temperature Precipitation Wind Pressure Humidity
    00:00 +20°C° 0 mm 1 mps 653 mmHg 85%
    01:00 +20°C° 0 mm 1 mps 653 mmHg 87%
    02:00 +20°C° 0 mm 1 mps 652 mmHg 87%
    03:00 +20°C° 0 mm 1 mps 652 mmHg 88%
    04:00 +19°C° 0 mm 1 mps 652 mmHg 88%
    05:00 +20°C° 0 mm 1 mps 652 mmHg 88%
    06:00 +18°C° 0 mm 0 mps 653 mmHg 87%
    07:00 +19°C° 0 mm 0 mps 653 mmHg 87%
    08:00 +21°C° 0 mm 0 mps 654 mmHg 80%
    09:00 +25°C° 0 mm 1 mps 654 mmHg 74%
    10:00 +27°C° 0 mm 1 mps 655 mmHg 67%
    11:00 +28°C° 0 mm 1 mps 655 mmHg 63%
    12:00 +29°C° 0 mm 1 mps 654 mmHg 58%
    13:00 +30°C° 0 mm 2 mps 654 mmHg 54%
    14:00 +29°C° 0 mm 2 mps 653 mmHg 56%
    15:00 +29°C° 0 mm 2 mps 653 mmHg 58%
    16:00 +29°C° 0 mm 2 mps 652 mmHg 61%
    17:00 +27°C° 0 mm 2 mps 652 mmHg 67%
    18:00 +25°C° 0 mm 1 mps 652 mmHg 74%
    19:00 +23°C° 0 mm 1 mps 653 mmHg 80%
    20:00 +22°C° 0.1 mm 1 mps 653 mmHg 83%
    21:00 +22°C° 0.1 mm 1 mps 653 mmHg 86%
    22:00 +21°C° 0.1 mm 1 mps 653 mmHg 89%
    23:00 +21°C° 0.1 mm 1 mps 653 mmHg 90%

    Day after tomorrow, 3 April, Friday

    Time Temperature Precipitation Wind Pressure Humidity
    00:00 +20°C° 0.1 mm 1 mps 653 mmHg 91%
    01:00 +20°C° 0.1 mm 1 mps 652 mmHg 92%
    02:00 +20°C° 0 mm 1 mps 652 mmHg 92%
    03:00 +19°C° 0 mm 1 mps 652 mmHg 91%
    04:00 +19°C° 0 mm 1 mps 651 mmHg 91%
    05:00 +19°C° 0 mm 1 mps 652 mmHg 90%
    06:00 +20°C° 0 mm 1 mps 652 mmHg 89%
    07:00 +18°C° 0 mm 0 mps 653 mmHg 88%
    08:00 +22°C° 0 mm 1 mps 653 mmHg 81%
    09:00 +24°C° 0 mm 1 mps 654 mmHg 74%
    10:00 +27°C° 0 mm 1 mps 654 mmHg 67%
    11:00 +28°C° 0 mm 1 mps 654 mmHg 63%
    12:00 +29°C° 0 mm 2 mps 654 mmHg 58%
    13:00 +30°C° 0 mm 2 mps 654 mmHg 53%
    14:00 +29°C° 0.1 mm 2 mps 653 mmHg 56%
    15:00 +29°C° 0.1 mm 2 mps 653 mmHg 60%
    16:00 +28°C° 0.1 mm 2 mps 652 mmHg 63%
    17:00 +26°C° 0.1 mm 2 mps 652 mmHg 70%
    18:00 +24°C° 0.1 mm 2 mps 652 mmHg 78%
    19:00 +22°C° 0.1 mm 1 mps 652 mmHg 85%
    20:00 +21°C° 0.1 mm 1 mps 652 mmHg 87%
    21:00 +21°C° 0.1 mm 1 mps 653 mmHg 88%
    22:00 +20°C° 0.1 mm 1 mps 653 mmHg 90%
    23:00 +20°C° 0.1 mm 1 mps 653 mmHg 92%

    4 April, Saturday

    Time Temperature Precipitation Wind Pressure Humidity
    00:00 +19°C° 0.1 mm 1 mps 653 mmHg 93%
    01:00 +19°C° 0.1 mm 1 mps 652 mmHg 95%
    02:00 +19°C° 0 mm 1 mps 652 mmHg 95%
    03:00 +19°C° 0 mm 1 mps 652 mmHg 96%
    04:00 +16°C° 0 mm 0 mps 651 mmHg 96%
    05:00 +17°C° 0 mm 0 mps 652 mmHg 95%
    06:00 +17°C° 0 mm 0 mps 652 mmHg 94%
    07:00 +17°C° 0 mm 0 mps 653 mmHg 93%
    08:00 +20°C° 0 mm 0 mps 654 mmHg 85%
    09:00 +25°C° 0 mm 1 mps 654 mmHg 76%
    10:00 +27°C° 0 mm 1 mps 655 mmHg 67%
    11:00 +28°C° 0.1 mm 1 mps 654 mmHg 63%
    12:00 +29°C° 0.1 mm 1 mps 654 mmHg 59%
    13:00 +29°C° 0.1 mm 2 mps 653 mmHg 55%
    14:00 +29°C° 0.1 mm 2 mps 653 mmHg 57%
    15:00 +28°C° 0.1 mm 2 mps 653 mmHg 60%
    16:00 +28°C° 0.1 mm 2 mps 652 mmHg 62%
    17:00 +26°C° 0.4 mm 2 mps 652 mmHg 71%
    18:00 +24°C° 0.4 mm 1 mps 652 mmHg 80%
    19:00 +21°C° 0.4 mm 1 mps 652 mmHg 88%
    20:00 +21°C° 0.1 mm 1 mps 652 mmHg 90%
    21:00 +20°C° 0.1 mm 1 mps 653 mmHg 91%
    22:00 +20°C° 0.1 mm 1 mps 653 mmHg 93%
    23:00 +19°C° 0 mm 1 mps 653 mmHg 94%

    5 April, Sunday

    Time Temperature Precipitation Wind Pressure Humidity
    00:00 +19°C° 0 mm 1 mps 652 mmHg 94%
    01:00 +17°C° 0 mm 0 mps 652 mmHg 95%
    02:00 +17°C° 0 mm 0 mps 652 mmHg 95%
    03:00 +16°C° 0 mm 0 mps 652 mmHg 96%
    04:00 +16°C° 0 mm 0 mps 652 mmHg 96%
    05:00 +16°C° 0 mm 0 mps 652 mmHg 96%
    06:00 +19°C° 0 mm 1 mps 653 mmHg 95%
    07:00 +19°C° 0 mm 1 mps 653 mmHg 95%
    08:00 +21°C° 0 mm 1 mps 654 mmHg 87%
    09:00 +23°C° 0 mm 2 mps 654 mmHg 80%
    10:00 +26°C° 0 mm 2 mps 655 mmHg 72%
    11:00 +26°C° 0.2 mm 2 mps 654 mmHg 69%
    12:00 +27°C° 0.2 mm 2 mps 654 mmHg 67%
    13:00 +28°C° 0.2 mm 2 mps 654 mmHg 64%
    14:00 +27°C° 1.8 mm 2 mps 653 mmHg 69%
    15:00 +27°C° 1.8 mm 2 mps 653 mmHg 74%
    16:00 +26°C° 1.8 mm 2 mps 652 mmHg 80%
    17:00 +24°C° 1.2 mm 1 mps 652 mmHg 83%
    18:00 +23°C° 1.2 mm 1 mps 652 mmHg 87%
    19:00 +21°C° 1.2 mm 1 mps 652 mmHg 90%
    20:00 +21°C° 0 mm 1 mps 653 mmHg 91%
    21:00 +20°C° 0 mm 1 mps 653 mmHg 91%
    22:00 +18°C° 0 mm 0 mps 653 mmHg 92%
    23:00 +17°C° 0 mm 0 mps 653 mmHg 92%

    6 April, Monday

    Time Temperature Precipitation Wind Pressure Humidity
    00:00 +17°C° 0 mm 0 mps 653 mmHg 93%
    01:00 +17°C° 0 mm 0 mps 652 mmHg 93%
    02:00 +17°C° 0 mm 0 mps 652 mmHg 94%
    03:00 +16°C° 0 mm 0 mps 652 mmHg 94%
    04:00 +16°C° 0 mm 0 mps 652 mmHg 95%
    05:00 +17°C° 0 mm 0 mps 652 mmHg 94%
    06:00 +17°C° 0 mm 0 mps 653 mmHg 93%
    07:00 +18°C° 0 mm 0 mps 653 mmHg 92%
    08:00 +22°C° 0 mm 1 mps 654 mmHg 85%
    09:00 +24°C° 0 mm 1 mps 654 mmHg 78%
    10:00 +25°C° 0 mm 2 mps 655 mmHg 70%
    11:00 +26°C° 0 mm 2 mps 655 mmHg 66%
    12:00 +27°C° 0 mm 2 mps 654 mmHg 62%
    13:00 +28°C° 0 mm 2 mps 654 mmHg 58%
    14:00 +28°C° 0.4 mm 2 mps 653 mmHg 63%
    15:00 +27°C° 0.4 mm 2 mps 653 mmHg 68%
    16:00 +26°C° 0.4 mm 2 mps 652 mmHg 73%
    17:00 +24°C° 0.2 mm 1 mps 652 mmHg 78%
    18:00 +23°C° 0.2 mm 1 mps 652 mmHg 83%
    19:00 +19°C° 0.2 mm 0 mps 652 mmHg 87%
    20:00 +18°C° 0 mm 0 mps 652 mmHg 88%
    21:00 +18°C° 0 mm 0 mps 653 mmHg 88%
    22:00 +18°C° 0 mm 0 mps 653 mmHg 88%
    23:00 +17°C° 0 mm 0 mps 653 mmHg 89%
    Show more